Погода в Партизанске

Погода в Партизанске : погода сейчас, прогноз погоды и архив. Всё, что Вы хотите узнать о погоде в Партизанске!

Хотите узнать прогноз погоды в Партизанске? Тогда Вам сюда: Погода в Партизанске

Поиск расширенной информации на нашем сайте:

Другие новости

Новости СМИ2

Главная страница сайта

Новости сайта

03.07.2017

Напоминаем, что на нашем специализированном сайте Метеоцентр.Азия вы можете получить высокодетализированные автоматические прогнозы погоды по пунктам России, СНГ и мира в авиационном формате (включающие направление и скорость ветра, видимость, явления погоды, количество и форму облачности, нижнюю и верхнюю границу облачности).


Погода в Партизанске - сегодня

Время (UTC), дата Ветер
(°,м/с) 
Видим.   Явления Облачность Т
(°С)
Тd
(°С)
f(%) Тe
(°С)
Pmin
(гПа)
dP
(гПа)
Po
(мм)
O2
(г/м3)
Тmin Tmax R s Состояние
почвы
03 19.05.18 030 (СВ) 5{10}  20000 м    1/1 1000 м 
[Cu hum]
+22.2 -1.3 21 +22  1014.3  -0.6  743  277           
06 19.05.18 120 (ЮВ) 20000 м    3/3 1000 м 
[Cu hum]
+24.3 -4.9 14 +24  1014.4  0.2  743  275           
12 19.05.18 200 (Ю) 4{11}  20000 м    1/1 1000 м 
[Sc]
+12.5 -0.3 41 +12  1021.1  2.4  747  288           
15 19.05.18 340 (С) 20000 м    ясно 
+8.7 +0.3 56 +10  1023.1  1.6  748  292           
18 19.05.18 тихо ()   20000 м    ясно 
+7.3 +0.2 61 +7  1024  0.7  749  294           
00 20.05.18 030 (СВ) 20000 м    ясно 
+15.7 +2.4 41 +17  1023.7  -0.2  749  285           
03 20.05.18 170 (Ю) 20000 м    ясно 
+21.8 +3.5 30 +22  1021.6  -1.5  748  279           
06 20.05.18 180 (Ю) 20000 м    8/1 1000 м верхняя 
[Cu hum|Cs]
+21.2 +4.1 33 +21  1020.2  -1.4  747  279           
12 20.05.18 070 (В) 20000 м    10/0 средняя, верхняя 
[Ac trans|Cs]
+12.4 +3.1 53 +14  1022.5  1.4  748  288           
15 20.05.18 340 (С) 20000 м    ясно 
+10.7 +3.3 60 +11  1022.2  -0.5  748  289           
18 20.05.18 350 (С) 20000 м    ясно 
+8 +3.1 71 +8  1022  -0.4  748  292           
00 21.05.18 060 (СВ) 20000 м    1/0 верхняя 
[Ci fib]
+18.3 +3.9 38 +20  1020.8  -0.5  747  282           
03 21.05.18 170 (Ю) 20000 м    8/1 1000 м верхняя 
[Cu hum|Ci fib]
+24.1 +1.3 22 +24  1018.7  -1.5  746  276           
12 21.05.18 240 (ЮЗ) 20000 м    4/1 1000 м верхняя 
[Sc|Ci fib]
+13.2 -3.7 31 +14  1019.3  1.4  746  287           
15 21.05.18 310 (СЗ) 20000 м    9/3 1000 м верхняя 
[Sc|Cs]
+11.7 -3.7 34 +13  1019.4  -0.1  746  289           
18 21.05.18 180 (Ю) 20000 м    3/0 верхняя 
[Ci fib]
+8.1 -1.4 51 +9  1019.4  -0.3  746  292           
00 22.05.18 170 (Ю) 20000 м    4/0 средняя, верхняя 
[Ac trans|Ci fib]
+16.4 +1 35 +17  1017.3  -1  745  283           
03 22.05.18 170 (Ю) 5{11}  20000 м    ясно 
+21.4 +3.1 30 +21  1014.1  -2.6  743  277           
06 22.05.18 210 (ЮЗ) 6{14}  20000 м    9/0 верхняя 
[Ci fib]
+19.5 -0.5 26 +20  1012  -2.3  741  279           
12 22.05.18 210 (ЮЗ) 20000 м    10/0 средняя 
[Ac As]
+12.7 +4.7 58 +12  1010.2  -1.1  739  284           
15 22.05.18 220 (ЮЗ) 20000 м    10/10 1000 м 
[Sc]
+12.5 +7.1 70 +12  1007.9  -2.3  737  283           
18 22.05.18 180 (Ю) 20000 м    10/10 600 м 
[Sc]
+10.9 +9.4 90 +12  1005.7  -2.2  736  283           
00 23.05.18 320 (СЗ) 8-17{18}  10 км  слаб. дождь  10/10 200 м 
[Frnb|Ns]
+9.1 +5.6 79 +7  1002.4  -1.1  733  285  +9.1         
12 23.05.18 320 (СЗ) 20000 м    ясно 
+8.2 +2.2 66 +8  1004.7  2.4  735  287           
15 23.05.18 тихо ()   20000 м    3/0 верхняя 
[Ci fib]
+6.8 +3.1 77 +7  1005.8  0.9  736  289           
Время (UTC), дата Ветер
(°,м/с) 
Видим.   Явления Облачность Т
(°С)
Тd
(°С)
f(%) Тe
(°С)
Pmin
(гПа)
dP
(гПа)
Po
(мм)
O2
(г/м3)
Тmin Tmax R s Состояние
почвы

Для получения пояснительной информации подведите курсор к названию столбца.

ПОГОДА в Партизанске - архив

Всё, что Вы хотите узнать о погоде в Партизанске - удобно и подробно!

Выберите нужную дату (начиная с 1 января 2015* года) и нажмите кнопку "Найти".
Будут отображены архивные сводки погоды по пункту Партизанск, начиная с указанной даты.


Отображать данные в формате CSV (для использования в таблицах Excel)


Внимание! Наш архив погоды предназначен исключительно для личного некоммерческого использования в познавательных целях. Если Вам необходимы официальные справки о состоянии погоды (для производственных, юридических, коммерческих и т.п. целей), обращайтесь в органы Росгидромета.

*Примечание: данная дата относится к архиву по метеостанциям СССР (Россия, СНГ, Балтия).
Архив по метеостанциям Зарубежной Европы и Азии (кроме Китая) хранится 10 дней, по другим регионам земного шара (Китай, Африка, Америка, Австралия, Океания) - 1 день.

Партизанск - район местоположения метеостанции


Название, широта, долгота, высота метеостанции:
Партизанск 43.2°ш. 133°д. 208 м над ур. моря [Российская Федерация]

Дополнительная информация

В oтличие oт бoльшинства пoгoдных сайтoв мы публикуем пoдрoбную метеoинфoрмацию в детальнoм прoфессиoнальнoм фoрмате.

Характеристики температуры и влажнoсти вoздуха измеряются на высoте 2 м в тени вдали oт зданий и деревьев.
Скoрoсть ветра измеряется на высoте 10 м (на урoвне рoста челoвека скoрoсть ветра ниже в 1.5-2 раза). Если метеoстанция нахoдится в гoрoде или в лесу, тo скoрoсть ветра занижена на 2-4 м/с пo сравнению с oткрытым местoм. Скoрoсть ветра над акватoриями крупных рек и oзёр, а также на вершинах хoлмoв на 2-5 м/с выше, чем в oбычных услoвиях.
Атмoсфернoе давление в разных тoчках местнoсти мoжет значительнo oтличаться oт давления на метеoстанции, в зависимoсти oт услoвий рельефа (при пoдъёме на 10 м давление пoнижается примернo на 1 мм рт.ст.).